Stations météo

Publicité
Cherbourg, France (7024): Température de l'air & dewpoint: 26.06.2020 13:00:00 - 02.07.2020 13:00:00 (CEST)Cherbourg, France (7024): Température de l'air 5cm: 26.06.2020 13:00:00 - 02.07.2020 13:00:00 (CEST)Cherbourg, France (7024): Température de l'air -20cm & Température de l'air -100cm: 26.06.2020 13:00:00 - 02.07.2020 13:00:00 (CEST)Cherbourg, France (7024): Vitesse du vent & gusts: 26.06.2020 13:00:00 - 02.07.2020 13:00:00 (CEST)Cherbourg, France (7024): Direction du vent: 26.06.2020 13:00:00 - 02.07.2020 13:00:00 (CEST)Cherbourg, France (7024): reduced air pressure: 26.06.2020 13:00:00 - 02.07.2020 13:00:00 (CEST)Cherbourg, France (7024): visibility: 26.06.2020 13:00:00 - 02.07.2020 13:00:00 (CEST)Cherbourg, France (7024): Ensoleillement: 26.06.2020 13:00:00 - 02.07.2020 13:00:00 (CEST)Cherbourg, France (7024): Quantités de précipitations: 26.06.2020 13:00:00 - 02.07.2020 13:00:00 (CEST)
Date & Time tt [°C] td [°C] tt 5cm [°C] tt -20cm [°C] tt -100cm [°C] ff [km/h] ff [knt] fx [km/h] fx [knt] dd ppp [hPa] vv [km] sd [min] rr [mm]
02.07.2020 13:00:00 16,0 11,4 19,2 16,0 15,5 26 14 44 24 W 1014,8 20 23 0,0
02.07.2020 12:00:00 16,8 11,1 17,3 16,0 15,5 29 15 44 24 W 1014,0 21 50 0,0
02.07.2020 11:00:00 14,9 12,0 14,4 16,0 15,5 23 12 35 19 W 1013,9 21 22 0,0
02.07.2020 10:00:00 13,7 12,6 13,5 16,0 15,4 18 10 29 15 W 1013,6 18 0 0,8
02.07.2020 09:00:00 14,2 11,7 14,5 16,1 15,4 20 11 31 17 W 1013,0 31 0 0,0
02.07.2020 08:00:00 13,7 11,7 12,0 16,1 15,5 16 9 26 14 W 1012,7 32 24 0,0
02.07.2020 07:00:00 12,9 11,3 12,2 16,2 15,4 17 9 27 15 W 1012,4 27 0 0,0
02.07.2020 06:00:00 13,1 12,2 10,9 16,2 15,4 13 7 23 12 W 1012,0 19 0 0,0
02.07.2020 05:00:00 12,4 11,3 10,7 16,3 15,4 15 8 27 15 WSW 1011,8 20 0 0,0
02.07.2020 04:00:00 13,1 11,7 11,6 16,3 15,5 19 10 36 20 W 1011,9 33 0 0,0
02.07.2020 03:00:00 12,5 11,4 10,8 16,4 15,5 16 9 32 17 W 1011,8 31 0 0,0
02.07.2020 02:00:00 12,3 10,7 11,0 16,4 15,5 20 11 29 16 W 1011,6 33 0 0,0
02.07.2020 01:00:00 12,8 11,0 11,5 16,4 15,5 20 11 32 18 W 1011,4 32 0 0,0
02.07.2020 00:00:00 13,4 11,6 12,4 16,5 15,5 19 11 34 19 W 1011,3 36 0 0,0
01.07.2020 23:00:00 14,8 13,3 14,4 16,5 15,5 16 9 28 15 WSW 1010,7 20 0 0,0
01.07.2020 22:00:00 15,0 13,4 14,9 16,5 15,5 16 9 27 15 WSW 1010,2 38 0 0,0
01.07.2020 21:00:00 15,4 12,9 15,7 16,4 15,5 15 8 36 20 WSW 1010,1 57 0 0,0
01.07.2020 20:00:00 16,1 13,2 16,9 16,4 15,5 17 9 33 18 WSW 1010,0 54 0 0,0
01.07.2020 19:00:00 16,2 12,7 16,8 16,4 15,5 20 11 31 17 WSW 1010,0 57 0 0,0
01.07.2020 18:00:00 17,3 12,6 18,9 16,3 15,5 18 10 31 17 W 1009,7 40 1 0,0
01.07.2020 17:00:00 18,2 12,9 21,0 16,2 15,5 23 12 34 18 WSW 1009,5 51 30 0,0
01.07.2020 16:00:00 17,4 13,3 19,7 16,2 15,5 23 12 34 18 WSW 1009,4 48 0 0,0
01.07.2020 15:00:00 17,4 13,1 20,4 16,2 15,5 23 12 39 21 WSW 1009,2 60 5 0,0
01.07.2020 14:00:00 17,0 13,5 18,3 16,2 15,5 21 11 41 22 WSW 1009,0 60 6 0,0
01.07.2020 13:00:00 16,8 13,3 17,9 16,1 15,5 22 12 36 19 W 1008,7 44 7 0,0
01.07.2020 12:00:00 15,9 12,6 17,9 16,1 15,5 24 13 39 21 WSW 1008,5 26 13 0,0
01.07.2020 11:00:00 16,1 13,0 17,0 16,1 15,5 25 13 38 21 WSW 1008,3 40 6 0,0
01.07.2020 10:00:00 15,7 13,0 16,4 16,2 15,5 21 11 36 20 WSW 1007,9 29 13 0,0
01.07.2020 09:00:00 15,1 13,5 14,8 16,2 15,5 20 11 29 15 WSW 1007,8 35 17 0,0
01.07.2020 08:00:00 14,3 13,5 14,1 16,2 15,5 16 9 29 16 WSW 1007,5 19 3 0,0
01.07.2020 07:00:00 13,9 13,4 12,7 16,3 15,5 14 8 26 14 WSW 1007,3 15 16 0,0
01.07.2020 06:00:00 13,5 13,2 13,5 16,3 15,5 11 6 24 13 WSW 1007,1 19 0 0,4
01.07.2020 05:00:00 13,6 13,3 13,6 16,3 15,5 18 10 28 15 W 1007,3 4,3 0 1,0
01.07.2020 04:00:00 14,2 13,9 14,1 16,3 15,5 14 8 22 12 W 1007,2 3,3 0 2,4
01.07.2020 03:00:00 14,3 14,0 14,3 16,4 15,5 15 8 31 17 W 1007,3 2,4 0 1,0
01.07.2020 02:00:00 15,7 15,4 15,6 16,4 15,5 16 9 24 13 W 1007,7 2,8 0 1,0
01.07.2020 01:00:00 15,8 15,3 15,7 16,4 15,5 13 7 28 15 WSW 1008,3 3,2 0 0,6
01.07.2020 00:00:00 16,0 15,5 15,9 16,4 15,5 13 7 21 11 WSW 1008,4 3,8 0 3,2
30.06.2020 23:00:00 16,1 15,6 15,9 16,4 15,5 14 8 29 16 WSW 1008,6 2,8 0 0,4
30.06.2020 22:00:00 16,1 15,6 15,9 16,4 15,5 19 11 31 17 WSW 1008,5 3,3 0 1,9
30.06.2020 21:00:00 16,1 15,6 16,0 16,3 15,5 22 12 35 19 WSW 1008,7 4,0 0 0,6
30.06.2020 20:00:00 16,6 16,0 16,6 16,3 15,5 17 9 36 19 WSW 1008,6 4,6 0 0,6
30.06.2020 19:00:00 17,0 16,4 17,4 16,3 15,5 21 12 37 20 WSW 1008,9 3,1 0 0,6
30.06.2020 18:00:00 17,5 16,9 17,4 16,2 15,5 22 12 41 22 SW 1009,2 2,8 0 2,2
30.06.2020 17:00:00 17,3 16,5 17,5 16,2 15,5 23 12 40 22 SW 1009,5 3,8 0 1,0
30.06.2020 16:00:00 17,7 15,7 17,7 16,1 15,5 27 15 46 25 SW 1009,5 9 4 0,0
30.06.2020 15:00:00 18,2 16,4 17,3 16,1 15,5 29 16 51 27 SW 1009,5 10 1 0,0
30.06.2020 14:00:00 17,0 15,5 16,8 16,0 15,5 28 15 46 25 SW 1009,8 4,2 0 0,0
30.06.2020 13:00:00 17,2 15,0 17,5 16,0 15,5 32 18 46 25 SSW 1009,8 20 1 0,0
30.06.2020 12:00:00 16,3 14,5 16,9 16,0 15,5 29 16 48 26 SW 1009,9 16 0 0,0
30.06.2020 11:00:00 15,7 14,9 15,4 16,0 15,5 26 14 41 22 WSW 1010,0 13 0 0,0
30.06.2020 10:00:00 15,6 14,8 15,6 16,0 15,5 29 15 44 24 WSW 1010,1 13 3 0,2
30.06.2020 09:00:00 15,6 15,1 15,0 16,0 15,5 24 13 42 23 SW 1009,9 6 0 0,2
30.06.2020 08:00:00 14,7 14,2 13,9 16,0 15,5 21 11 35 19 SW 1010,2 3,2 1 0,2
30.06.2020 07:00:00 13,9 13,4 13,5 16,0 15,5 18 10 30 16 SSW 1010,4 2,9 0 0,2
30.06.2020 06:00:00 13,6 13,1 13,1 16,1 15,5 14 7 24 13 SSW 1010,7 2,1 0 0,4
30.06.2020 05:00:00 13,3 12,7 13,0 16,1 15,5 16 8 30 16 SSW 1011,5 3,4 0 0,0
30.06.2020 04:00:00 13,3 12,4 12,7 16,1 15,5 16 9 29 16 SW 1012,0 4,4 0 0,0
30.06.2020 03:00:00 13,5 12,2 12,2 16,1 15,6 22 12 35 19 SW 1012,4 28 0 0,0
30.06.2020 02:00:00 13,2 12,1 12,4 16,2 15,5 22 12 36 19 WSW 1013,1 9 0 0,0
30.06.2020 01:00:00 13,6 11,1 12,7 16,2 15,5 23 12 43 23 WSW 1013,6 33 0 0,0
30.06.2020 00:00:00 14,2 10,6 13,4 16,2 15,5 25 14 42 23 WSW 1013,9 39 0 0,0
29.06.2020 23:00:00 14,0 9,8 13,3 16,3 15,5 27 14 43 23 W 1014,2 44 0 0,0
29.06.2020 22:00:00 14,1 9,9 13,5 16,3 15,6 29 16 45 24 W 1014,1 38 21 0,0
29.06.2020 21:00:00 14,3 9,3 13,9 16,3 15,6 30 16 47 25 WSW 1014,3 37 36 0,0
29.06.2020 20:00:00 15,1 9,5 15,1 16,2 15,5 28 15 45 25 W 1014,3 60 4 0,0
29.06.2020 19:00:00 15,1 9,9 16,7 16,2 15,6 29 16 53 29 W 1014,7 19 21 0,0
29.06.2020 18:00:00 16,6 9,5 19,3 16,2 15,6 32 17 56 30 W 1014,9 20 47 0,0
29.06.2020 17:00:00 17,1 8,2 20,4 16,1 15,5 33 18 55 30 W 1015,1 27 45 0,0
29.06.2020 16:00:00 16,4 9,1 16,5 16,1 15,6 34 18 55 30 WSW 1015,5 35 31 0,0
29.06.2020 15:00:00 15,0 8,7 16,5 16,0 15,5 34 19 52 28 W 1015,6 20 12 0,0
29.06.2020 14:00:00 16,5 8,5 14,7 16,0 15,6 34 18 55 30 W 1015,5 29 19 0,0
29.06.2020 13:00:00 14,7 9,5 15,7 16,0 15,6 31 17 51 28 WSW 1015,8 20 19 0,0
29.06.2020 12:00:00 16,1 9,0 17,8 16,0 15,6 31 17 52 28 W 1015,6 23 20 0,0
29.06.2020 11:00:00 15,1 8,3 14,1 16,0 15,6 30 16 50 27 W 1015,6 20 9 0,0
29.06.2020 10:00:00 14,6 9,8 12,2 16,1 15,6 27 14 50 27 W 1015,3 19 6 0,2
29.06.2020 09:00:00 14,8 9,2 13,0 16,1 15,6 30 16 45 24 WSW 1014,8 31 40 0,0
29.06.2020 08:00:00 13,3 8,6 12,5 16,2 15,6 22 12 35 19 WSW 1014,5 33 12 0,0
29.06.2020 07:00:00 12,6 7,3 10,5 16,2 15,6 20 11 45 24 W 1014,4 53 15 0,0
29.06.2020 06:00:00 12,7 9,3 10,7 16,3 15,6 24 13 39 21 W 1014,4 17 0 0,0
29.06.2020 05:00:00 12,2 9,2 9,8 16,3 15,6 21 11 36 19 W 1014,4 29 0 0,0
29.06.2020 04:00:00 12,2 9,4 10,9 16,4 15,6 20 11 40 22 W 1014,6 30 0 0,0
29.06.2020 03:00:00 12,9 9,9 10,7 16,5 15,6 22 12 40 21 W 1014,8 30 0 0,0
29.06.2020 02:00:00 12,3 9,3 10,5 16,5 15,6 18 10 37 20 WSW 1014,9 33 0 0,0
29.06.2020 01:00:00 12,7 9,9 10,8 16,6 15,6 21 12 36 19 WSW 1015,1 31 0 0,0
29.06.2020 00:00:00 13,3 10,1 12,1 16,6 15,6 20 11 40 21 W 1015,0 31 0 0,0
28.06.2020 23:00:00 13,0 9,8 11,9 16,7 15,6 24 13 45 24 W 1015,2 33 0 0,0
28.06.2020 22:00:00 13,1 9,9 12,2 16,7 15,6 25 13 46 25 W 1014,8 34 27 0,0
28.06.2020 21:00:00 14,6 9,6 15,0 16,7 15,6 28 15 44 24 W 1014,9 31 60 0,0
28.06.2020 20:00:00 15,3 9,9 16,2 16,6 15,6 28 15 45 25 W 1014,7 23 52 0,0
28.06.2020 19:00:00 16,6 9,5 18,4 16,6 15,6 29 16 46 25 W 1014,8 15 55 0,0
28.06.2020 18:00:00 17,1 9,3 22,0 16,5 15,6 29 16 45 25 W 1014,8 16 56 0,0
28.06.2020 17:00:00 17,7 9,8 23,1 16,4 15,6 31 17 50 27 WSW 1015,0 19 56 0,0
28.06.2020 16:00:00 17,6 9,5 19,5 16,4 15,6 32 17 53 29 W 1015,0 20 37 0,0
28.06.2020 15:00:00 17,6 10,5 19,2 16,4 15,6 32 17 53 29 WSW 1014,8 25 16 0,0
28.06.2020 14:00:00 17,2 10,3 18,7 16,3 15,6 29 16 48 26 WSW 1014,9 27 31 0,0
28.06.2020 13:00:00 15,6 10,4 17,8 16,3 15,6 29 16 50 27 WSW 1015,1 26 13 0,0
28.06.2020 12:00:00 16,7 10,3 20,0 16,3 15,6 32 18 48 26 WSW 1014,8 20 49 0,0
28.06.2020 11:00:00 16,2 10,1 16,6 16,3 15,6 30 16 50 27 WSW 1014,6 19 35 0,0
28.06.2020 10:00:00 15,4 10,2 19,0 16,3 15,6 28 15 45 25 WSW 1014,4 19 57 0,0
28.06.2020 09:00:00 14,7 9,9 16,1 16,4 15,6 29 16 44 24 WSW 1014,0 24 58 0,0
28.06.2020 08:00:00 13,9 9,9 11,7 16,5 15,6 22 12 39 21 WSW 1013,4 20 60 0,0
28.06.2020 07:00:00 12,5 9,7 10,3 16,5 15,6 18 10 30 16 SW 1013,0 20 16 0,0
28.06.2020 06:00:00 12,1 9,5 10,2 16,6 15,6 20 11 33 18 WSW 1012,8 31 0 0,0
28.06.2020 05:00:00 12,2 9,8 10,4 16,7 15,6 16 9 31 17 WSW 1012,4 34 0 0,0
28.06.2020 04:00:00 12,8 10,3 11,4 16,8 15,6 20 11 47 26 WSW 1012,0 20 0 0,0
28.06.2020 03:00:00 12,9 11,0 11,6 16,8 15,6 29 15 56 31 WSW 1011,6 37 0 0,0
28.06.2020 02:00:00 13,3 11,0 11,5 16,9 15,5 32 18 60 32 WSW 1011,4 38 0 0,0
28.06.2020 01:00:00 13,1 10,8 11,7 17,0 15,6 35 19 59 32 WSW 1011,2 42 0 0,2
28.06.2020 00:00:00 13,7 10,9 12,5 17,0 15,6 35 19 51 28 WSW 1010,9 36 0 0,0
27.06.2020 23:00:00 13,6 11,1 12,8 17,1 15,6 28 15 44 24 WSW 1010,5 20 0 0,0
27.06.2020 22:00:00 13,8 11,1 13,1 17,1 15,6 22 12 41 22 WSW 1010,1 30 5 0,0
27.06.2020 21:00:00 14,5 11,5 14,4 17,1 15,6 26 14 37 20 WSW 1010,0 29 0 0,0
27.06.2020 20:00:00 15,0 11,6 15,6 17,2 15,5 26 14 40 21 W 1009,6 20 0 0,0
27.06.2020 19:00:00 15,9 12,3 16,7 17,2 15,5 25 14 45 24 WSW 1009,5 47 6 0,0
27.06.2020 18:00:00 15,9 12,1 17,7 17,2 15,5 25 14 51 28 WSW 1009,3 29 9 0,0
27.06.2020 17:00:00 15,8 12,9 15,2 17,2 15,5 34 19 55 30 WSW 1009,0 19 0 0,0
27.06.2020 16:00:00 15,4 13,6 14,8 17,2 15,5 32 18 56 30 WSW 1008,7 8 0 0,0
27.06.2020 15:00:00 16,6 12,5 16,7 17,2 15,5 32 18 61 33 SW 1008,1 60 0 0,0
27.06.2020 14:00:00 17,3 12,0 19,7 17,2 15,5 39 21 64 34 WSW 1007,9 8 33 0,0
27.06.2020 13:00:00 17,8 12,7 20,9 17,2 15,5 34 19 61 33 WSW 1007,4 7 53 0,0
27.06.2020 12:00:00 16,5 14,3 16,2 17,2 15,5 35 19 58 32 WSW 1006,6 7 11 1,0
27.06.2020 11:00:00 17,1 14,9 16,0 17,2 15,5 28 15 56 30 SSW 1005,9 17 4 0,0
27.06.2020 10:00:00 16,2 14,6 15,8 17,2 15,5 28 15 52 28 S 1006,0 15 2 0,2
27.06.2020 09:00:00 16,2 14,0 15,5 17,3 15,5 30 16 50 27 SSW 1006,1 44 4 0,0
27.06.2020 08:00:00 15,6 14,3 14,6 17,3 15,5 27 14 44 24 SSW 1005,9 49 0 0,0
27.06.2020 07:00:00 15,1 14,1 14,4 17,4 15,5 20 11 40 22 S 1006,4 40 0 0,2
27.06.2020 06:00:00 14,9 14,3 14,0 17,4 15,5 23 12 43 23 S 1006,7 18 0 0,6
27.06.2020 05:00:00 14,2 13,6 13,7 17,5 15,5 14 8 34 19 SW 1007,6 2,3 0 0,4
27.06.2020 04:00:00 14,3 13,2 13,7 17,6 15,5 24 13 48 26 S 1008,2 18 0 0,2
27.06.2020 03:00:00 15,2 13,0 13,4 17,7 15,4 25 13 39 21 S 1008,7 60 0 0,0
27.06.2020 02:00:00 14,8 13,3 13,6 17,7 15,4 23 12 36 19 SSW 1008,9 42 0 0,0
27.06.2020 01:00:00 15,0 14,2 13,8 17,8 15,4 11 6 18 10 S 1009,3 9 0 0,0
27.06.2020 00:00:00 15,2 14,6 12,7 17,8 15,4 10 5 15 8 SSE 1010,0 8 0 0,0
26.06.2020 23:00:00 14,4 13,6 13,0 17,9 15,4 9 5 13 7 S 1009,9 6 0 0,0
26.06.2020 22:00:00 14,8 13,7 13,7 17,9 15,4 7 4 11 6 S 1010,1 7 19 0,0
26.06.2020 21:00:00 15,9 14,3 16,2 17,9 15,4 8 4 16 9 S 1010,2 11 22 0,0
26.06.2020 20:00:00 16,1 14,3 17,0 18,0 15,4 10 6 19 10 SSW 1010,5 19 0 0,0
26.06.2020 19:00:00 16,2 14,0 17,3 18,0 15,4 13 7 22 12 SSW 1010,9 20 0 0,0
26.06.2020 18:00:00 16,5 14,0 18,5 18,0 15,4 17 9 25 13 SW 1011,2 13 0 0,0
26.06.2020 17:00:00 17,0 14,3 18,9 17,9 15,3 12 7 21 11 WSW 1011,5 19 0 0,0
26.06.2020 16:00:00 17,3 14,4 20,4 17,9 15,3 14 8 27 14 W 1011,7 20 1 0,0
26.06.2020 15:00:00 17,2 14,5 19,5 17,9 15,3 16 9 36 19 WSW 1011,7 19 0 0,0
26.06.2020 14:00:00 17,8 14,7 22,1 18,0 15,3 24 13 35 19 SW 1011,9 6 10 0,0
26.06.2020 13:00:00 16,9 14,9 19,7 18,0 15,3 19 11 28 15 SW 1011,6 10 0 0,0

tt = Température de l'air
td = dewpoint
tt 5cm = Température de l'air 5cm
tt -20cm = Température de l'air -20cm
tt -100cm = Température de l'air -100cm
ff = Vitesse du vent
fx = gusts
dd = Direction du vent
ppp = reduced air pressure
vv = visibility
sd = Ensoleillement
rr = Quantités de précipitations

stations d'obs. à proximité